Location: Newark
(52.3500°N, 175.9667°E)
Time: 22:21:23
(UTC+00:00)

Altair - Pass Details

Date: 29 April 2021
Orbit: 1501 x 1683 km, 47.2° (Epoch: 05 May)

Event Time Altitude Azimuth Distance (km) Brightness Sun altitude
Rises 21:13:24 0° 285° (WNW) 4,839 9.6 38.3°
Reaches altitude 10° 21:16:50 10° 277° (W) 3,825 9.2 38.7°
Maximum altitude 21:25:23 37° 215° (SW) 2,250 8.8 39.8°
Drops below altitude 10° 21:33:39 10° 152° (SSE) 3,691 10.4 40.9°
Sets 21:36:55 0° 145° (SE) 4,653 10.8 41.3°
